Regional Weather Roundup
Issued by NWS Boston, MA

Current Version | Previous Version | Text Only | Print | Product List | Glossary Off
Versions: 1 2 3 4 5 6 7 8 9 10 11 12 13 14 15 16 17 18 19 20 21 22 23 24 25 26 27 28 29 30 31 32 33 34 35 36 37 38 39 40 41 42 43 44 45 46 47 48 49 50
000 ASUS41 KBOX 232010 RWRBOX REGIONAL WEATHER ROUNDUP NATIONAL WEATHER SERVICE BOSTON/NORTON MA 400 PM EDT TUE JUL 23 2019 NOTE: "FAIR" INDICATES FEW OR NO CLOUDS BELOW 12,000 FEET WITH NO SIGNIFICANT WEATHER AND/OR OBSTRUCTIONS TO VISIBILITY. MAZALL-232100- EASTERN MASSACHUSETTS CITY SKY/WX TMP DP RH WIND PRES REMARKS BOSTON PTSUNNY 70 56 61 NE6 29.87R BEVERLY CLOUDY 70 57 63 N3 29.86R LAWRENCE CLOUDY 68 57 68 N5 29.89R BEDFORD CLOUDY 71 55 56 N6 29.87R BLUE HILL N/A 65 59 81 VRB5 29.88R NORWOOD CLOUDY 72 56 57 N6 29.87R MARSHFIELD CLOUDY 66 59 77 VRB6G15 29.88R PLYMOUTH CLOUDY 64 59 83 N9 29.88R TAUNTON PTSUNNY 69 59 70 N5 29.87R NEW BEDFORD CLOUDY 65 58 78 N7 29.86R $$ MAZALL-232100- CAPE COD AND THE ISLANDS CITY SKY/WX TMP DP RH WIND PRES REMARKS FALMOUTH CLOUDY 63 59 88 N10 29.86R HYANNIS CLOUDY 65 60 84 N15 29.84R CHATHAM NOT AVBL PROVINCETOWN CLOUDY 63 59 87 N13G21 29.86R NANTUCKET CLOUDY 68 63 84 N15G25 29.82R MARTHAS VNYRD CLOUDY 66 61 84 N16 29.85R $$ MAZALL-232100- CENTRAL AND WESTERN MASSACHUSETTS CITY SKY/WX TMP DP RH WIND PRES REMARKS WORCESTER PTSUNNY 67 59 75 N9 29.90R FITCHBURG PTSUNNY 71 60 68 CALM 29.89R ORANGE PTSUNNY 73 58 59 N7 29.90R SPRINGFIELD PTSUNNY 73 61 66 NE5 29.87R WESTFIELD PTSUNNY 74 61 63 NE8 29.87S NORTH ADAMS FAIR 74 60 61 CALM 29.88S PITTSFIELD FAIR 75 56 51 NW7 29.89R $$ RIZALL-232100- RHODE ISLAND CITY SKY/WX TMP DP RH WIND PRES REMARKS PROVIDENCE CLOUDY 68 60 75 N8 29.89R NEWPORT CLOUDY 67 60 78 N8 29.88R BLOCK ISLAND N/A N/A N/A N/A MISG N/A SMITHFIELD CLOUDY 67 58 72 NE7 29.89S WESTERLY CLOUDY 70 63 78 VRB5 29.89R $$ CTZALL-232100- CONNECTICUT CITY SKY/WX TMP DP RH WIND PRES REMARKS BRADLEY INTL PTSUNNY 74 62 66 NE3 29.88R HARTFORD CLOUDY 71 62 73 N9 29.87R BRIDGEPORT CLOUDY 73 63 70 E9 29.87R DANBURY CLOUDY 72 62 71 CALM 29.90R GROTON PTSUNNY 73 60 63 NE6 29.88R NEW HAVEN CLOUDY 74 64 71 NE5 29.88R CHESTER CLOUDY 70 64 83 CALM 29.90R MERIDEN CLOUDY 73 62 68 NE5 29.88R WILLIMANTIC CLOUDY 71 60 68 E6 29.89S OXFORD CLOUDY 72 63 73 VRB7 29.91R $$ MEZ002-015-021-024-NHZ003-005-008-011-012-014-VTZ005-008-232100- NORTHERN NEW ENGLAND CITY SKY/WX TMP DP RH WIND PRES REMARKS PORTLAND ME CLOUDY 70 56 61 N7 29.84F BANGOR ME PTSUNNY 72 50 45 CALM 29.82S CONCORD NH PTSUNNY 72 57 59 VRB3 29.88R MANCHESTER NH CLOUDY 70 56 61 VRB6 29.87R NASHUA NH CLOUDY 69 61 75 N5 29.89R PORTSMOUTH NH CLOUDY 68 56 64 NW6 29.85R JAFFREY NH PTSUNNY 68 58 70 NE5 29.91R KEENE NH CLOUDY 71 59 65 N6 29.89R BURLINGTON VT FAIR 80 49 33 VRB3 29.84S MT. WASHINGTON FOG 46 43 87 N18G26 N/A VSB 1 $$ NYZ052-076-232100- EASTERN NEW YORK CITY SKY/WX TMP DP RH WIND PRES REMARKS ALBANY PTSUNNY 77 57 50 NE5 29.87F NEW YORK CITY CLOUDY 74 62 66 E7 29.87S $$ ANZALL-232100- MARINE OBSERVATIONS STATION/POSITION TIME TEMP WIND PRES VSBY WAVE AIR SEA DIR/SP/G HT/PER (UTC) (F) (DEG/KT/KT) (MB) (MI) (FT/S) BOSTON BUOY 1950 64 67 10/ 14/ 16 1010.3R 5/ 6 BUZZARDS BAY NOT AVBL NANTUCKET SOUND 1940 76 N/A 3/ 4 MASS BAY-STELLWA 1904 64 66 10/ 16/ 19 1010.1R 1 7/8 5/ 5 ISLE OF SHOALS 1900 64 10/ 11/ 12 1010.5R S OF BLOCK IS 1930 72 N/A 7/ 9 $$ ......................KEY......................... SKY/WX - SKY CONDITION/PRESENT WEATHER TMP - TEMPERATURE IN FAHRENHEIT DWPT - DEWPOINT IN FAHRENHEIT RH - RELATIVE HUMIDITY IN PERCENT WIND - DIRECTION AND SPEED IN MPH PRES - MEAN SEA LEVEL PRESSURE IN INCHES OF HG WCI - WIND CHILL INDEX VSB - VISIBILITY IN MILES HX - HEAT INDEX TC - TEMPERATURE IN CELSIUS VRB - VARIABLE WIND DIRECTION N/A - NOT AVAILABLE

USA.gov is the U.S. government's official web portal to all federal, state and local government web resources and services.